Tracking 20942 objects as of 10-Jul-2020
HD Live streaming from Space Station
objects crossing your sky now

THOR 2A

Track THOR 2A now!
THOR 2A is classified as:


NORAD ID: 24808
Int'l Code: 1997-025A
Perigee: 36,137.5 km
Apogee: 36,184.9 km
Inclination: 8.5 °
Period: 1,454.9 minutes
Semi major axis: 42532 km
RCS: 15.8489 m2 (large)
Launch date: May 20, 1997
Source: Norway (NOR)
Launch site: AIR FORCE EASTERN TEST RANGE (AFETR)

15 Ku-band; Nordic region, northern Europe.
aabbcc
Your satellite tracking list
Your tracking list is empty




NASA's NSSDC Master Catalog

Two Line Element Set (TLE):
1 24808U 97025A   20191.43968816 -.00000281 +00000-0 +00000-0 0  9995
2 24808 008.5358 045.9867 0005569 320.3691 238.6643 00.98975248024618
Source of the keplerian elements: AFSPC